Wind_Speed
13 12 12 13 13 12 13 14 14 14 14 12 11 12 11 11 14 14 19 24 20 18 20 15 15 21 21 16 13 17 21 23 25 27 27 26 26 26 26 28 30 31 29 27 27 26 24 21 21 23 23 23 23 23 24 25 26 27 28 27 26 25 25 26 25 25 25 27 28 28 29 29 28 27 27 29 30 30 30 30 29 27 27 27 27 27
15 14 16 17 15 12 11 13 12 12 13 12 11 13 14 11 12 15 18 22 20 16 16 13 14 22 24 20 20 22 20 21 26 27 26 27 27 27 28 28 30 32 32 28 26 24 22 21 21 23 23 23 23 24 25 25 26 27 28 27 26 25 25 26 26 25 24 25 27 28 28 28 28 28 28 28 29 30 31 30 30 29 28 28 28 28
14 15 21 20 15 13 13 13 12 12 12 12 12 13 14 13 12 16 19 18 17 16 15 13 14 20 21 21 26 26 20 21 25 26 26 27 28 28 28 28 29 31 31 28 25 26 24 23 24 24 23 23 24 25 25 25 26 27 27 28 26 24 24 24 25 25 24 23 24 25 26 27 28 28 29 29 29 30 31 31 31 31 30 30 30 29
11 14 21 18 16 17 15 14 14 13 13 13 13 14 14 14 13 18 23 21 18 18 19 18 19 18 17 19 23 22 19 21 22 23 25 26 27 27 26 26 26 27 28 26 24 25 25 25 24 24 23 23 23 25 25 26 27 28 29 29 28 25 24 24 25 26 25 23 23 24 25 25 26 27 28 30 30 31 32 32 32 32 31 31 31 30
15 19 20 15 16 18 16 17 16 15 17 17 16 17 16 14 15 19 23 21 17 18 20 21 23 21 18 20 22 23 23 23 22 22 24 24 25 25 25 25 25 25 27 27 24 23 23 24 22 23 23 23 24 24 25 27 28 30 31 31 30 28 26 25 25 26 26 24 24 25 25 25 25 26 27 28 30 31 31 32 32 32 31 31 30 30
20 24 20 16 17 17 16 18 19 18 19 19 19 20 20 20 19 20 23 23 17 17 18 20 23 21 17 18 21 24 24 22 23 23 23 24 25 24 25 25 25 26 27 28 26 23 22 23 22 23 24 24 25 25 27 28 30 32 32 33 33 31 29 28 26 26 27 26 26 26 26 26 26 26 26 27 28 29 29 30 30 30 30 30 30 29
23 22 18 18 17 16 16 17 19 19 19 20 19 20 24 26 26 23 25 26 21 20 22 22 22 19 15 17 21 24 23 20 22 24 24 26 26 26 27 28 27 27 28 28 27 25 22 22 24 23 24 26 27 28 30 30 31 33 33 34 35 34 32 30 28 27 27 26 27 27 26 26 26 26 26 26 27 28 29 29 30 30 29 29 28 28
25 22 18 18 17 16 16 17 19 18 19 22 21 20 22 24 27 26 25 26 24 23 26 24 22 21 19 19 21 25 24 21 21 23 24 27 29 29 29 30 29 29 28 28 27 27 24 24 26 25 25 28 29 30 32 32 33 34 34 36 37 36 34 31 29 29 29 27 26 28 27 26 27 27 26 26 27 27 28 28 29 29 28 28 27 27
24 21 19 18 17 17 14 15 19 18 18 23 23 21 20 21 24 24 23 25 24 25 27 24 23 25 24 22 24 28 27 23 23 24 25 28 29 31 30 30 30 29 29 28 28 29 27 27 29 28 28 30 31 32 32 33 34 35 36 36 37 37 35 32 30 30 29 27 27 27 26 26 27 27 26 26 27 27 27 27 28 27 26 26 25 25
23 19 19 18 17 17 15 14 16 16 18 22 22 20 19 20 22 22 21 22 22 26 26 23 24 26 24 22 25 30 28 24 24 25 27 29 28 29 29 29 30 30 30 31 31 31 30 30 30 30 31 31 32 32 33 33 35 37 37 35 36 38 36 31 29 30 29 28 27 26 25 25 26 26 26 26 26 27 27 26 26 25 25 24 24 23
22 20 20 19 17 18 19 18 17 16 18 20 19 18 19 19 20 21 21 20 23 27 24 22 25 26 24 20 20 25 26 24 24 26 28 29 28 27 28 29 31 32 32 32 33 33 32 32 32 32 32 32 33 34 35 35 36 38 39 37 37 38 35 31 29 30 29 28 27 25 24 24 24 25 25 25 25 25 25 25 24 24 23 22 22 22
20 20 20 20 18 19 20 20 19 18 18 18 18 17 18 18 20 20 19 20 23 23 22 23 25 27 26 21 18 24 27 25 25 26 28 30 30 29 29 30 32 33 33 33 34 33 33 33 33 33 34 35 36 36 37 37 37 38 39 39 39 37 33 32 30 29 28 27 25 24 24 23 23 24 23 23 23 23 23 23 22 21 21 20 20 20
15 15 18 18 17 17 18 18 18 17 16 17 17 17 17 18 19 19 18 19 20 19 20 21 22 25 25 21 23 29 30 27 25 26 28 29 30 31 31 31 31 33 33 34 34 34 34 34 34 35 36 38 38 37 38 39 38 39 40 41 40 35 30 28 27 27 26 25 23 23 23 22 22 22 22 22 21 21 21 20 20 19 19 19 18 18
11 11 13 13 13 15 15 14 14 15 15 15 15 16 18 18 18 19 19 17 16 18 20 20 20 22 21 20 26 31 29 27 27 28 27 27 28 30 30 29 29 30 31 32 33 33 33 33 34 35 37 38 37 37 38 39 39 40 40 40 38 32 26 25 25 26 26 24 23 23 22 21 21 21 21 21 21 20 20 19 19 18 18 18 17 17
10 11 13 12 11 10 11 11 12 12 13 12 13 15 17 17 18 19 19 16 14 16 19 19 19 20 20 22 25 27 26 25 26 27 26 26 27 27 27 27 26 26 27 28 29 30 30 30 32 34 35 35 35 34 36 37 38 39 38 37 35 29 25 24 25 27 27 26 25 24 23 21 20 21 21 21 21 21 20 19 19 19 18 18 18 18
12 11 16 15 11 9 10 10 11 11 11 11 13 15 15 16 18 20 20 19 18 19 20 19 18 19 22 24 24 23 24 24 25 26 26 27 27 27 27 26 25 24 24 25 25 25 26 27 29 31 31 30 29 29 30 31 32 33 33 33 32 28 26 25 25 26 26 26 25 23 22 21 19 19 20 20 20 20 20 19 19 19 18 18 18 18
12 10 14 15 13 12 12 11 11 10 10 12 12 14 15 16 16 18 20 20 20 22 23 23 23 24 25 26 25 25 24 25 26 27 28 28 28 29 29 28 26 24 23 23 23 24 24 25 27 28 27 24 23 23 23 24 25 26 28 30 30 28 26 25 25 26 25 25 24 23 22 21 20 19 19 19 19 19 19 18 18 18 17 17 17 17
15 14 14 13 13 15 13 12 13 11 12 13 12 14 15 16 16 17 20 20 20 22 23 23 25 26 24 23 25 25 23 24 25 24 26 27 27 29 29 29 27 24 23 23 23 23 24 25 25 26 24 22 21 21 20 21 21 24 27 28 29 27 25 24 25 24 24 25 24 23 23 23 22 21 21 20 19 19 19 18 18 18 19 18 18 17
16 16 16 14 15 17 14 13 14 14 14 14 14 15 15 16 16 16 19 21 21 21 22 23 22 23 22 20 23 25 21 22 23 23 25 25 26 27 28 29 27 25 24 23 23 23 24 24 24 25 26 25 24 23 22 23 24 26 27 27 27 26 25 25 24 24 25 25 24 24 24 24 24 24 23 22 21 20 20 20 20 21 21 20 20 19
17 16 18 17 19 18 15 16 17 15 16 16 16 16 16 17 18 17 19 22 21 22 23 23 22 21 19 17 21 24 22 22 23 24 27 27 26 26 26 27 28 26 25 24 23 24 25 26 25 26 27 28 29 29 28 28 28 28 27 26 27 27 26 26 24 25 26 26 25 26 26 26 26 25 25 25 24 23 23 23 23 22 22 21 20 19
20 20 20 19 21 20 17 18 18 16 16 17 16 16 16 18 20 19 21 21 21 23 23 24 25 22 18 19 24 25 25 25 24 24 26 26 26 26 26 26 27 27 26 25 24 23 25 27 27 27 28 28 31 33 33 34 33 31 29 29 29 28 28 28 28 28 29 28 27 28 27 26 26 25 25 25 24 24 24 24 24 23 23 23 22 21
23 23 22 20 22 22 20 21 21 18 18 19 20 19 19 19 20 21 23 22 22 24 23 24 25 23 22 27 28 25 26 29 27 25 26 26 25 25 24 25 27 28 27 27 26 25 25 27 28 29 30 30 31 32 33 34 34 33 32 31 32 32 32 33 34 34 32 30 30 29 28 28 27 26 25 24 23 23 24 24 24 24 25 25 26 26
25 25 25 25 25 24 23 25 26 23 22 23 25 25 24 23 22 24 25 23 24 27 26 26 27 27 27 30 28 25 28 31 30 29 30 29 28 27 26 26 27 29 29 29 29 28 27 28 29 30 31 33 33 33 31 31 31 33 34 35 35 35 36 38 38 38 36 34 34 32 30 30 28 27 26 27 27 26 25 26 26 27 27 27 28 29
27 27 28 29 29 28 27 28 30 29 27 29 30 29 29 28 26 28 29 28 29 30 28 28 30 31 31 30 28 28 30 33 32 33 34 34 33 32 31 30 30 30 32 32 32 32 30 30 31 32 32 33 34 34 33 32 31 32 34 36 36 36 38 41 41 40 39 37 36 34 33 32 31 30 29 29 31 31 29 30 30 30 30 30 30 31
29 29 31 31 31 31 30 30 30 30 31 32 31 30 31 31 30 30 30 31 32 30 29 31 33 32 34 35 34 31 30 31 32 33 34 34 33 33 34 34 33 32 33 34 35 36 35 34 34 34 35 35 34 33 34 34 34 34 34 35 36 37 38 41 43 42 40 39 38 37 35 34 33 33 32 31 34 35 33 33 33 32 32 33 32 31
32 32 33 33 33 33 32 29 27 29 31 32 30 29 30 31 31 30 31 33 33 29 30 34 34 33 36 38 38 36 33 33 35 35 34 35 35 36 37 37 36 35 35 36 37 38 39 39 38 38 38 38 37 36 35 35 36 37 38 38 39 39 39 39 41 42 40 39 39 37 37 37 36 35 34 34 34 36 35 35 34 34 34 34 33 32
35 34 35 36 36 36 35 32 31 34 36 36 34 33 33 34 31 30 32 35 34 33 34 34 34 36 37 37 37 36 34 34 36 36 36 37 38 39 39 39 38 39 39 38 38 39 41 42 42 43 42 41 41 40 39 39 38 38 39 41 42 43 42 41 41 43 41 39 38 38 38 39 38 38 39 39 39 41 41 38 35 35 37 36 34 34
38 38 38 38 39 39 39 38 37 39 41 41 41 40 39 39 36 33 34 34 33 36 36 34 35 37 36 36 38 38 35 35 36 36 35 36 37 38 40 40 40 41 42 42 41 40 40 41 42 44 45 45 45 44 43 43 42 42 41 42 43 44 45 45 45 46 46 44 44 43 40 38 37 39 42 44 45 46 44 40 38 39 41 38 35 35
41 41 41 41 41 41 41 41 40 41 43 44 44 43 42 43 41 39 39 36 35 38 37 34 37 38 37 37 38 37 36 36 36 35 33 34 37 39 40 40 38 36 37 40 42 42 39 39 40 42 44 46 46 47 46 46 45 45 44 44 44 45 46 47 48 48 48 48 48 48 46 42 39 40 42 43 44 44 43 42 43 44 43 41 38 37
42 42 43 42 43 43 42 42 42 43 44 44 45 45 44 45 45 44 43 40 38 39 38 37 39 39 39 39 37 37 39 40 40 40 40 42 43 42 42 41 38 35 33 33 35 37 37 38 38 40 41 43 45 46 47 47 47 47 46 46 46 45 46 48 49 50 51 51 50 49 49 49 47 46 45 45 45 45 43 43 43 42 40 39 38 39
42 41 42 42 43 45 44 43 44 44 46 46 46 47 46 46 46 45 44 43 42 41 40 40 41 41 40 41 39 40 43 44 44 43 43 44 41 39 39 39 38 39 37 34 32 34 37 38 39 40 40 41 43 44 45 46 46 46 46 46 46 46 46 47 49 50 52 53 52 51 51 50 51 51 51 51 51 51 49 48 47 45 43 40 38 38
40 40 41 42 45 46 44 44 44 44 47 48 48 47 47 47 47 46 44 45 44 43 42 42 43 42 42 42 42 43 45 45 45 44 43 45 44 41 40 41 41 41 42 42 41 40 40 39 39 40 41 41 42 43 43 44 45 45 46 46 46 46 46 47 48 49 51 52 53 53 52 51 51 51 51 52 54 54 54 53 54 54 52 49 45 43
38 39 41 42 45 46 45 45 45 46 49 50 48 46 45 45 44 45 46 45 43 42 42 43 43 42 43 43 42 42 43 44 45 44 43 44 45 41 39 41 43 43 44 46 46 44 43 42 42 42 42 42 43 43 43 44 45 45 46 47 47 47 47 48 48 49 50 51 52 53 53 53 52 51 50 50 51 52 52 52 53 54 53 52 50 48
42 43 44 43 44 46 45 44 45 48 51 50 46 44 43 41 41 43 44 44 42 42 42 44 44 43 45 46 43 42 41 41 42 43 43 44 46 45 43 43 44 45 45 46 45 46 47 46 44 43 42 43 44 43 44 45 45 46 46 47 47 48 48 48 49 49 50 52 53 54 54 54 54 54 53 52 52 53 52 53 53 53 53 53 52 51
45 46 46 45 45 46 46 46 48 49 49 47 44 44 44 43 42 43 43 43 44 44 42 43 44 46 47 48 48 47 46 44 44 45 45 47 49 49 47 46 47 49 50 49 49 50 50 48 46 45 44 44 44 44 45 46 45 46 46 47 47 47 48 48 49 49 50 52 53 54 55 56 56 56 57 57 56 56 56 57 56 56 56 55 55 54
46 46 46 46 46 47 47 47 49 48 46 44 44 45 45 43 43 45 45 45 46 46 45 45 46 47 49 49 50 51 50 49 48 48 49 49 49 49 50 51 52 51 51 52 52 52 51 49 48 47 46 46 46 46 46 46 46 47 47 47 47 47 48 49 49 50 50 51 52 53 54 55 55 56 56 57 58 58 58 58 58 58 57 56 56 56
45 44 45 45 45 45 46 46 47 46 46 45 45 47 46 43 43 46 47 47 47 47 47 48 48 49 50 51 51 52 51 50 47 46 47 47 46 48 51 54 54 52 50 50 52 52 50 49 49 48 48 48 48 48 48 48 48 48 48 49 49 49 49 49 50 51 51 51 52 52 53 53 54 54 55 56 56 56 57 57 57 57 57 56 56 55
42 42 42 42 43 44 44 44 45 45 46 46 44 45 45 43 42 44 45 45 46 47 48 48 48 49 50 51 50 51 51 48 45 45 45 43 44 46 48 49 51 51 51 51 51 51 49 49 50 49 49 49 49 50 50 50 50 50 50 50 50 50 51 51 52 52 53 53 53 52 53 53 53 54 54 55 55 56 55 55 55 55 55 54 54 53
39 39 39 40 42 43 43 44 44 45 46 45 43 43 44 43 41 41 42 44 47 48 48 48 48 47 49 50 49 49 48 44 42 43 43 43 46 47 44 44 47 49 50 50 49 49 49 49 50 50 50 50 51 51 51 51 51 51 51 51 51 51 52 52 53 53 54 54 53 53 53 53 53 53 54 54 54 55 55 55 54 54 53 52 52 52
39 39 39 40 41 42 42 44 44 45 46 47 45 44 45 45 42 40 41 43 45 47 47 47 48 47 47 48 48 47 45 42 41 43 43 44 48 48 44 45 47 47 48 48 48 48 48 47 48 48 48 49 49 50 51 51 52 52 51 51 51 51 52 52 52 53 53 54 53 53 53 52 52 52 52 52 53 53 53 54 54 53 53 52 51 52
42 41 41 42 43 42 42 44 44 44 46 48 47 46 46 45 44 42 41 42 44 45 45 46 47 47 46 46 47 46 44 42 44 46 46 46 49 48 47 47 47 47 48 48 49 48 47 46 47 47 47 48 49 50 50 51 51 51 51 51 50 50 50 50 50 51 51 52 52 52 52 52 51 51 51 51 51 51 52 52 53 53 53 52 52 52
42 43 44 43 42 41 41 43 44 45 46 47 47 46 45 44 44 44 44 44 45 47 47 47 47 47 47 48 48 47 46 45 45 46 46 47 48 48 48 47 47 48 49 49 49 49 48 48 48 47 48 49 49 50 51 51 52 51 51 51 50 50 50 49 49 50 50 51 51 51 51 51 50 50 50 50 50 51 51 52 52 52 53 52 52 52
39 38 37 37 39 40 41 42 44 44 44 44 44 44 43 42 44 45 46 47 47 48 48 48 48 49 49 49 49 49 48 48 47 47 47 47 46 47 48 48 49 50 50 50 50 50 50 49 49 49 49 50 50 51 52 52 52 52 51 51 50 50 49 49 49 49 49 50 50 50 50 50 50 50 50 50 50 51 51 52 51 52 52 53 52 51
37 35 34 34 37 40 41 41 41 42 41 41 42 42 43 45 47 48 47 47 47 47 48 48 49 49 49 49 50 49 49 48 48 48 49 48 47 47 49 50 50 50 50 51 51 51 50 50 50 50 50 50 51 52 52 52 52 51 51 50 50 50 49 49 49 49 48 49 49 49 49 49 49 50 49 49 49 50 51 51 51 51 51 52 52 51
34 35 36 37 37 37 38 38 39 39 40 40 40 40 43 46 48 48 47 46 46 46 47 48 48 48 48 49 48 48 48 48 48 49 50 50 49 49 49 50 50 51 51 51 51 51 51 51 50 51 51 51 52 52 52 52 52 52 52 51 51 50 50 49 49 48 48 48 48 48 47 47 48 48 48 48 48 49 50 51 50 49 50 51 51 51
33 34 35 36 36 35 36 37 38 38 39 40 40 40 43 45 46 46 45 46 46 47 47 47 48 49 49 49 48 48 48 48 49 49 50 50 50 50 50 50 51 52 52 52 52 52 52 52 52 52 52 52 52 53 53 53 53 53 52 52 51 51 50 49 48 47 47 47 47 47 47 47 47 47 48 48 47 48 50 50 48 47 48 50 50 50
33 34 34 34 34 35 35 36 38 39 39 40 41 42 43 44 44 45 46 47 47 48 48 48 48 50 51 51 50 50 49 49 50 50 51 51 51 51 52 52 52 52 53 53 54 54 53 53 53 53 52 52 52 52 53 54 54 53 53 52 52 51 50 49 49 48 47 47 46 45 46 46 47 47 48 48 48 48 49 48 46 47 48 49 49 49
33 35 34 33 34 35 36 36 38 40 40 41 42 43 44 44 45 46 47 48 48 48 49 49 49 50 51 52 52 52 51 52 52 52 52 52 53 53 53 53 53 53 54 54 55 55 54 54 54 54 54 54 54 54 55 55 54 54 54 53 52 52 51 51 50 50 49 48 47 46 47 48 48 48 48 48 48 48 48 47 47 48 49 49 49 49
33 35 35 35 36 37 37 38 40 40 41 42 43 44 45 46 46 46 47 48 49 49 49 50 50 51 52 52 53 53 53 53 53 54 54 54 54 55 55 55 55 55 55 56 56 56 56 56 56 56 56 55 56 56 56 55 55 54 54 53 53 52 52 52 51 51 50 49 47 47 48 49 49 49 49 49 48 48 47 48 48 48 49 50 50 49
35 35 36 37 38 38 38 39 40 41 41 41 41 43 45 45 45 45 46 46 46 47 48 48 49 50 51 52 53 54 54 53 54 55 55 55 55 56 56 56 57 58 58 58 57 57 57 57 57 57 57 56 57 57 57 56 55 55 55 54 53 53 53 53 52 51 51 50 49 49 49 49 49 49 49 50 49 48 47 47 47 47 47 47 47 45
35 34 35 37 38 38 38 39 40 41 40 39 39 40 41 42 42 43 42 41 41 41 42 43 44 46 47 49 50 51 52 52 53 54 55 55 56 57 57 57 58 59 59 59 59 59 59 58 58 58 58 58 58 58 58 57 56 55 55 55 54 54 54 53 52 52 50 50 49 49 49 50 49 48 48 48 47 45 43 43 43 43 42 41 40 38
Wind_Direction
243 241 235 232 231 232 231 224 229 233 232 250 242 220 220 214 211 220 246 254 256 242 217 223 232 209 220 241 238 247 244 236 241 242 241 243 246 251 252 255 261 264 262 262 265 267 262 264 281 285 280 280 278 277 277 277 279 279 280 280 280 280 278 277 276 274 273 273 273 272 270 269 268 263 257 253 251 252 254 257 259 260 262 266 267 268
244 240 236 237 239 235 232 230 228 233 239 243 238 230 229 216 205 218 243 258 261 247 220 221 241 225 224 235 241 255 258 246 247 248 243 242 245 248 250 250 254 260 264 264 266 269 266 269 282 279 276 277 275 276 277 278 280 281 282 281 280 281 280 280 279 276 274 271 271 271 270 269 269 267 263 258 256 256 258 260 263 265 267 268 269 269
248 250 249 244 242 238 233 233 230 227 230 234 229 227 228 219 212 227 244 261 264 247 224 227 254 245 233 238 249 259 261 251 252 253 248 245 245 248 250 249 250 256 263 265 268 274 272 273 277 274 275 276 275 277 278 281 282 283 284 282 281 282 283 284 283 281 278 273 271 271 270 269 268 267 266 264 262 262 262 264 266 267 268 268 268 268
245 255 260 251 239 239 237 234 234 231 228 227 227 225 222 219 224 240 250 254 255 246 234 236 253 254 243 245 255 261 257 252 252 252 250 248 247 249 250 251 251 254 261 263 265 272 273 274 276 275 276 275 276 280 282 283 284 284 285 284 284 285 286 286 286 285 282 277 274 272 271 269 267 267 266 265 265 264 265 265 266 267 267 267 266 266
239 245 258 258 244 242 240 238 236 234 235 231 228 224 220 226 232 235 244 248 248 246 241 244 254 258 260 262 265 264 255 250 251 251 251 250 247 248 250 253 254 254 259 263 265 266 267 270 273 273 275 276 279 281 282 283 283 284 286 286 287 288 289 289 288 286 284 281 277 274 272 269 267 265 264 264 264 264 264 265 265 265 266 266 266 265
246 251 256 257 251 248 244 244 240 236 240 241 238 231 225 236 242 235 242 250 253 255 250 248 254 259 265 265 259 258 255 247 247 251 253 254 253 252 254 256 257 257 259 262 263 258 259 267 270 270 275 278 280 279 278 279 280 282 284 286 287 288 290 291 290 287 284 282 278 275 272 270 268 266 264 263 263 263 263 263 264 264 265 265 265 265
252 258 257 254 252 251 248 247 245 240 242 247 245 239 233 239 247 245 246 252 253 259 258 252 253 253 251 251 249 252 256 252 248 250 251 253 255 254 255 257 257 260 261 260 262 260 260 266 267 268 272 273 274 274 274 275 277 279 282 284 286 288 290 291 292 288 284 280 276 274 271 269 268 267 266 265 264 264 263 263 263 263 263 263 263 263
256 259 257 256 253 251 249 248 247 239 235 243 245 241 238 241 249 250 249 253 252 253 256 255 255 252 243 245 251 253 256 258 256 255 253 252 252 250 251 254 255 257 260 261 263 263 260 257 258 261 264 265 267 268 271 273 275 277 279 281 284 287 289 291 291 288 284 280 274 271 269 267 267 268 267 267 266 265 265 263 263 262 263 263 263 263
258 261 260 258 255 251 247 245 247 239 231 240 246 246 245 246 252 255 252 253 254 252 255 257 256 254 249 249 256 259 258 256 259 261 256 251 251 251 251 252 253 254 256 257 257 258 257 253 254 256 257 259 261 262 266 270 273 275 276 279 282 285 288 290 289 286 283 280 274 270 267 265 266 266 266 265 265 264 264 263 263 263 264 265 266 266
262 264 261 256 253 248 237 238 247 241 233 242 250 252 250 250 254 259 256 254 254 253 256 260 259 258 253 246 250 259 259 254 252 251 250 251 254 254 253 252 252 253 252 252 252 254 254 252 252 252 253 255 257 258 260 265 269 272 274 276 277 280 285 287 288 286 281 279 275 271 268 266 265 265 264 263 263 262 262 262 263 264 265 266 267 268
260 260 258 253 250 246 241 247 253 244 239 245 250 252 253 255 255 256 257 255 254 256 259 259 258 259 257 250 250 258 259 253 247 244 248 256 258 255 254 253 253 253 251 250 251 253 253 253 253 252 252 253 254 256 258 261 265 269 272 273 272 276 280 281 284 284 279 277 276 272 270 268 266 266 265 263 263 262 262 262 263 265 266 267 268 269
260 261 261 255 250 249 249 253 253 246 243 245 247 251 254 255 255 257 259 255 254 259 263 259 256 258 259 256 250 251 254 254 251 250 253 258 260 258 256 255 254 254 253 252 251 252 253 253 253 253 254 254 254 255 257 258 261 263 267 269 270 273 276 276 278 279 278 277 276 275 273 272 270 269 267 266 265 265 265 265 266 267 268 269 270 270
265 264 262 258 252 251 253 254 253 249 245 244 244 246 248 248 252 255 254 254 258 260 259 257 257 259 259 253 246 248 254 258 257 257 258 259 261 261 258 256 255 253 252 252 251 251 251 251 251 252 252 253 253 253 253 254 255 257 260 263 267 271 271 270 272 276 278 278 278 278 277 275 272 270 270 269 269 268 267 267 268 269 269 269 269 269
264 262 258 258 255 251 250 249 249 248 243 240 241 241 241 242 246 251 251 254 261 263 260 252 250 257 260 254 251 254 258 258 257 259 261 262 260 259 258 257 255 253 251 251 252 251 250 249 249 249 250 252 252 250 249 249 249 250 252 258 264 267 264 264 270 274 276 276 278 279 277 275 272 270 270 269 269 267 267 267 267 268 268 268 268 268
240 247 253 257 256 250 243 238 241 247 242 234 237 242 242 242 243 247 250 248 245 252 259 257 255 260 262 257 258 261 259 255 256 261 263 264 263 261 259 256 254 252 251 250 250 250 249 247 246 247 249 251 251 249 247 247 245 245 247 253 260 263 261 263 267 270 271 272 274 275 275 275 272 269 268 267 266 265 264 265 264 265 266 268 269 268
225 239 253 253 251 250 244 240 240 249 250 241 239 243 245 245 245 246 250 251 246 246 253 260 266 268 266 266 266 266 264 262 262 264 264 263 263 262 260 258 255 252 250 249 248 245 244 242 241 243 244 246 247 247 246 245 244 244 244 247 254 258 259 261 263 265 267 269 269 270 271 270 268 266 265 265 266 266 265 266 266 266 266 266 267 268
219 222 246 252 255 253 246 245 246 243 247 248 243 242 244 246 248 250 254 256 255 256 260 265 271 273 272 273 271 267 268 269 266 264 263 261 260 260 260 259 256 253 250 249 246 243 240 237 236 237 238 238 241 242 242 241 239 238 239 243 249 253 254 256 259 261 264 265 264 264 264 263 263 264 264 263 264 264 264 265 266 266 265 264 264 265
229 227 244 258 262 255 246 250 255 248 245 252 252 248 247 250 253 254 257 259 259 261 265 266 269 271 270 270 271 270 268 267 265 263 261 260 259 258 258 258 257 255 251 247 246 243 241 238 235 234 235 235 236 236 236 236 235 235 238 242 247 250 252 253 255 258 261 262 262 260 259 259 261 264 265 262 261 260 261 262 262 264 265 265 265 264
239 241 252 259 259 257 257 257 261 262 257 252 253 255 255 256 259 258 260 263 264 265 267 266 267 269 267 262 265 270 268 261 260 261 262 262 260 258 256 256 256 255 253 249 246 244 244 242 236 234 235 234 233 234 234 234 235 236 239 243 246 249 250 251 254 257 259 261 261 259 257 258 260 264 263 260 258 259 262 263 264 265 267 268 269 267
247 250 254 257 257 259 265 266 268 272 264 254 251 255 255 255 258 261 263 265 265 265 267 268 266 266 267 258 259 269 271 262 259 262 263 264 262 259 255 253 253 254 253 251 248 246 246 244 238 237 239 236 231 232 233 234 235 235 237 240 244 248 250 253 255 256 257 258 258 257 258 260 263 264 262 259 258 258 261 264 264 266 268 268 268 268
255 255 255 259 263 265 267 264 263 261 258 258 257 256 257 258 258 257 258 262 265 265 267 270 269 267 265 258 259 269 273 267 266 267 265 265 264 259 254 252 252 250 249 249 249 247 245 245 242 240 243 243 237 234 234 235 234 233 234 237 240 244 247 250 251 250 253 255 255 256 258 260 263 263 262 260 259 258 258 261 262 264 269 271 269 267
257 257 257 259 264 268 265 259 258 259 261 264 263 261 261 262 260 258 258 261 263 262 262 266 270 268 263 261 262 266 268 270 272 270 267 267 265 258 252 252 253 251 248 246 245 244 242 244 245 242 244 247 247 245 244 242 238 233 231 233 238 242 244 245 245 246 249 251 251 251 253 256 258 260 260 259 260 260 260 261 263 265 269 272 271 267
259 263 263 262 262 264 263 263 265 267 266 265 264 263 262 261 262 262 263 262 261 261 260 261 265 265 263 265 265 262 262 267 270 269 267 267 267 261 255 257 258 254 251 246 243 242 240 240 241 242 244 247 251 254 254 252 248 242 237 234 235 239 241 242 242 243 244 246 247 247 250 254 256 256 256 257 260 262 261 262 266 269 270 272 272 269
263 267 267 266 266 264 264 267 269 269 267 264 263 263 263 262 261 260 261 259 259 262 263 263 265 266 267 268 266 262 261 263 265 266 265 266 268 264 260 263 263 255 251 248 243 242 240 238 237 238 240 243 249 254 256 257 255 252 249 244 242 245 248 245 242 240 241 242 244 246 249 253 254 254 257 260 262 262 261 264 270 272 270 269 270 268
265 267 267 268 270 270 270 271 272 272 270 265 264 263 261 259 259 260 261 260 260 262 263 262 263 266 268 269 268 265 262 259 261 264 265 265 266 265 263 266 267 261 254 250 246 243 242 241 238 236 237 238 242 247 252 256 257 256 254 251 250 253 256 252 246 246 249 249 244 243 248 253 254 256 259 261 261 261 261 265 270 271 268 268 269 268
264 265 267 268 270 270 271 270 268 266 265 264 266 265 263 263 264 263 260 258 259 260 258 257 259 261 263 265 268 268 264 262 262 263 263 264 265 266 268 269 269 267 262 256 251 247 244 243 242 240 238 238 238 240 244 248 253 256 257 256 254 254 256 255 250 249 256 257 252 250 255 256 253 254 259 260 256 255 260 267 270 269 267 267 267 266
264 264 265 267 268 268 268 265 262 262 263 265 266 265 265 267 266 261 258 258 260 259 256 255 256 257 259 263 268 269 266 264 263 262 263 264 266 269 271 271 270 269 266 261 256 251 247 246 245 244 243 242 241 241 242 243 245 249 253 256 258 258 258 257 254 253 255 258 258 259 260 258 254 254 259 260 255 254 260 266 265 262 261 261 262 263
265 265 265 266 267 267 266 264 263 263 264 265 265 264 264 263 259 256 256 257 257 257 257 256 256 256 258 259 261 264 264 263 263 263 264 264 267 271 271 270 270 270 267 262 256 252 250 248 247 246 246 247 246 246 246 246 245 245 247 250 254 257 259 259 258 258 258 258 258 258 257 257 257 259 262 263 263 263 264 264 260 257 257 256 258 260
264 265 266 266 266 265 265 265 263 263 264 265 265 264 264 263 261 259 258 257 255 256 257 255 253 252 253 255 257 260 263 262 261 263 263 264 269 271 269 268 270 270 268 263 257 253 252 252 251 250 249 249 249 250 251 251 251 250 249 249 250 252 255 257 258 259 259 259 258 258 257 256 256 259 260 260 261 262 262 262 259 256 254 253 256 260
263 264 264 264 264 264 264 264 263 264 265 266 266 266 264 264 264 264 263 261 258 256 257 255 253 251 250 252 254 256 258 260 262 264 264 266 269 269 267 266 266 265 264 261 256 253 253 255 256 255 253 252 252 252 253 254 255 255 254 253 252 251 251 253 254 256 258 259 259 258 257 256 256 257 258 258 257 257 259 261 259 253 250 252 256 261
262 263 264 264 264 264 264 264 264 265 266 265 264 265 266 265 265 265 265 265 263 261 259 257 256 254 252 251 251 253 255 257 261 263 263 264 266 266 264 263 264 264 260 255 254 256 257 258 259 259 258 256 255 254 254 254 254 254 254 254 253 253 252 252 253 254 255 257 259 259 258 258 258 259 260 260 261 261 262 264 262 258 257 258 261 263
262 262 263 265 265 266 267 268 267 267 267 266 265 266 267 267 267 267 266 265 265 265 263 259 257 257 257 255 253 254 257 258 258 260 262 263 263 263 262 262 263 263 258 255 258 261 260 261 262 262 261 259 258 256 255 255 255 254 254 254 253 253 252 252 252 253 254 256 258 259 260 260 260 261 262 263 265 266 268 268 267 266 266 266 266 267
264 265 266 268 269 269 269 270 270 269 268 267 268 269 269 268 268 267 265 263 262 262 262 260 258 258 258 258 257 257 259 260 259 258 259 261 261 260 259 261 262 261 258 258 260 260 260 263 265 265 264 262 261 260 259 257 256 255 255 254 254 254 253 253 253 253 255 256 257 259 260 260 260 261 262 264 266 267 268 268 269 270 271 271 270 269
266 268 269 269 270 271 271 271 270 269 269 270 271 271 269 268 266 265 265 264 262 260 261 262 261 259 258 259 260 258 257 258 258 256 255 257 259 260 259 259 260 260 259 259 259 259 261 265 268 267 265 263 262 261 260 259 258 257 256 255 255 255 255 255 254 254 254 256 257 258 259 259 259 260 261 262 263 263 264 266 268 270 272 273 272 271
266 268 269 270 270 271 271 271 270 270 271 273 273 270 267 267 267 267 267 267 265 264 263 263 262 261 260 260 260 259 258 258 258 257 256 256 257 259 259 259 259 259 259 259 260 261 264 267 269 267 265 263 262 260 259 259 259 258 257 257 257 257 256 256 256 255 255 255 256 257 257 258 259 260 260 261 262 262 263 265 267 269 270 271 272 272
266 268 268 269 269 269 270 270 270 271 272 272 272 270 269 270 271 271 269 267 267 266 265 263 262 262 262 262 261 261 261 261 260 259 258 257 257 258 258 258 258 257 258 260 261 262 264 266 266 265 264 263 262 260 260 259 259 258 258 258 258 257 257 257 257 256 256 256 256 256 257 258 259 260 260 260 261 262 263 264 265 267 268 269 270 272
267 267 268 268 269 269 269 270 271 272 272 272 272 272 273 274 274 272 271 269 268 268 266 265 264 264 263 263 263 263 264 263 262 260 258 258 258 257 256 257 258 258 259 260 261 262 263 264 263 264 264 263 263 262 261 261 260 259 258 258 258 258 258 257 257 257 256 256 257 257 257 258 259 260 261 261 262 263 264 264 265 265 266 268 269 270
268 268 268 269 269 269 270 271 272 273 273 274 275 275 275 275 273 272 272 272 271 269 269 268 267 266 265 264 264 264 265 265 263 260 258 258 257 254 253 254 256 257 257 258 260 261 262 262 263 263 263 262 262 262 262 261 261 260 260 259 259 259 259 258 258 258 257 257 257 257 257 258 258 259 259 260 262 263 264 265 265 266 267 267 268 269
268 268 269 269 270 270 271 271 272 273 273 272 273 274 274 274 273 271 271 271 271 271 270 270 269 267 267 266 266 265 265 264 261 258 258 257 255 254 252 252 254 255 256 257 259 261 261 262 263 263 263 262 262 262 262 262 261 261 261 260 260 259 259 259 259 259 260 260 259 259 259 258 258 258 258 259 260 261 263 264 265 266 267 267 268 268
268 269 270 270 270 271 272 272 273 273 272 271 271 271 271 271 271 270 269 269 271 271 270 269 269 269 268 267 267 266 264 261 257 255 254 254 255 254 252 252 255 257 258 259 260 262 263 263 263 264 264 263 263 262 262 262 262 262 261 261 260 260 260 260 260 260 261 261 261 261 261 261 260 260 260 259 260 260 261 262 263 264 265 265 266 267
272 272 271 271 271 271 271 272 272 270 270 271 271 270 270 270 269 267 266 268 269 269 268 267 267 267 266 265 265 264 262 258 256 256 256 255 256 256 254 253 255 256 257 259 261 263 264 264 263 263 264 264 263 263 263 262 263 263 262 261 261 260 260 260 260 261 261 261 261 261 262 262 262 261 261 260 260 260 260 261 262 263 263 264 264 265
275 275 275 274 273 271 269 269 269 268 268 271 271 270 270 270 268 266 265 265 266 266 266 266 266 265 264 263 262 261 260 258 257 257 257 256 256 257 257 255 254 255 256 258 260 262 263 262 262 263 263 263 263 263 263 263 263 262 262 262 261 261 260 260 260 260 260 260 260 260 261 261 261 261 261 260 260 260 260 260 260 261 262 262 263 264
273 274 275 275 273 271 269 268 268 268 269 271 272 271 270 269 267 267 267 266 266 267 268 268 267 265 264 263 262 260 259 258 257 257 257 256 255 256 257 256 255 256 257 258 259 260 261 261 262 262 262 262 262 262 262 262 262 262 262 262 261 261 261 261 260 260 260 260 260 260 259 259 260 260 260 260 260 260 260 260 260 260 261 262 262 263
271 270 269 267 268 269 270 270 270 270 271 271 271 270 269 268 267 267 267 267 269 270 270 269 267 266 266 265 264 263 262 260 258 257 257 256 255 255 256 257 257 257 258 258 259 259 260 260 261 260 260 261 261 261 261 261 261 261 261 261 261 261 262 262 261 261 261 261 260 260 260 259 259 259 259 259 259 259 259 260 260 260 261 262 262 262
269 269 268 266 267 268 270 270 270 271 271 270 269 269 269 269 269 270 270 271 271 270 269 268 268 268 267 266 265 265 264 262 261 260 260 259 258 257 257 257 258 258 258 259 259 259 259 260 259 260 260 260 260 260 260 260 260 261 261 261 262 262 262 262 262 262 262 261 261 261 262 261 260 260 260 259 259 259 259 259 259 260 261 261 261 262
270 269 269 269 269 269 270 270 270 270 270 269 269 268 268 269 271 272 272 271 270 270 269 270 270 270 269 267 266 265 264 263 262 262 261 261 260 259 259 258 258 259 260 260 260 260 261 260 260 260 260 260 260 260 260 260 260 260 261 262 262 262 263 263 262 262 261 261 261 261 262 262 261 261 261 260 259 259 259 260 260 261 261 260 261 261
274 272 271 271 271 271 271 271 271 271 270 270 269 269 270 271 272 272 271 271 270 270 271 271 271 271 271 271 269 268 266 265 264 263 262 262 262 261 260 259 259 259 260 260 261 261 261 261 261 261 261 260 259 259 260 260 260 261 261 261 262 262 263 263 263 263 263 263 262 262 263 263 262 262 261 260 260 260 260 261 261 261 261 261 261 261
275 275 276 276 274 273 272 272 272 272 272 272 272 272 272 272 272 272 272 272 272 272 272 272 271 271 271 272 272 271 270 269 268 266 265 264 264 263 262 262 261 260 260 260 261 261 261 262 262 262 261 261 261 260 260 260 260 261 261 261 261 262 262 262 263 263 264 264 264 264 264 264 264 263 263 262 261 261 261 262 261 261 262 262 262 262
278 280 280 279 277 276 276 275 275 274 274 275 275 274 274 273 273 273 273 273 273 273 273 273 273 272 271 271 271 271 270 269 269 268 267 266 266 265 264 264 263 262 261 261 261 261 260 260 260 260 260 260 261 261 261 261 261 261 262 261 262 262 262 262 263 264 264 264 264 264 264 264 264 264 264 264 263 263 263 263 263 262 262 263 263 264
280 281 281 280 280 280 280 279 278 277 277 276 275 275 275 275 275 274 274 274 275 274 274 273 273 273 272 272 271 271 270 270 269 268 268 267 266 266 265 265 264 264 263 263 262 262 262 261 261 261 261 261 261 261 262 262 262 262 262 262 262 262 262 262 263 263 264 265 265 265 265 265 265 265 266 265 265 265 265 265 264 263 263 263 264 265
282 282 281 281 282 283 282 281 280 280 280 279 279 278 278 278 277 277 277 277 277 276 276 275 274 274 274 273 273 273 272 271 270 269 269 268 267 266 265 265 264 264 264 263 263 263 263 263 263 262 262 262 262 262 262 262 262 262 262 262 262 261 261 261 262 262 263 264 264 264 265 265 266 266 266 266 266 266 265 263 263 263 262 262 262 261
Height
5742 5742 5743 5743 5743 5744 5744 5744 5746 5747 5747 5748 5748 5749 5753 5753 5755 5757 5751 5746 5749 5751 5753 5756 5756 5758 5758 5757 5755 5752 5753 5755 5756 5757 5759 5760 5760 5760 5761 5760 5756 5754 5755 5758 5759 5760 5760 5759 5757 5759 5761 5762 5762 5763 5763 5762 5762 5762 5763 5763 5764 5766 5766 5766 5767 5767 5767 5766 5766 5766 5766 5766 5767 5767 5768 5769 5770 5770 5771 5771 5772 5772 5772 5772 5772 5773
5740 5740 5740 5740 5741 5742 5743 5743 5744 5745 5745 5745 5746 5747 5749 5751 5754 5754 5749 5745 5747 5749 5751 5753 5753 5753 5754 5754 5752 5750 5751 5753 5753 5754 5756 5757 5757 5758 5758 5759 5757 5753 5753 5755 5756 5757 5757 5756 5756 5758 5760 5760 5760 5760 5761 5761 5761 5761 5761 5761 5762 5763 5763 5763 5764 5764 5764 5765 5764 5763 5763 5764 5764 5764 5765 5766 5767 5767 5768 5768 5769 5769 5770 5770 5770 5770
5739 5739 5737 5738 5740 5741 5741 5742 5743 5743 5744 5744 5745 5746 5748 5750 5751 5750 5746 5745 5746 5747 5749 5750 5749 5749 5751 5751 5749 5749 5751 5751 5750 5751 5753 5753 5754 5755 5755 5756 5756 5753 5751 5752 5753 5753 5753 5753 5755 5758 5758 5759 5758 5758 5758 5759 5758 5759 5758 5758 5759 5760 5761 5760 5760 5761 5761 5762 5762 5761 5761 5761 5761 5762 5762 5763 5764 5764 5765 5765 5766 5766 5767 5767 5768 5768
5738 5736 5734 5736 5738 5739 5740 5741 5741 5742 5742 5743 5744 5745 5746 5748 5749 5747 5744 5743 5744 5746 5746 5747 5747 5747 5748 5748 5747 5747 5748 5748 5748 5749 5749 5750 5751 5752 5753 5753 5754 5753 5752 5752 5752 5751 5751 5753 5754 5755 5756 5756 5756 5756 5756 5756 5756 5756 5755 5755 5756 5757 5758 5758 5758 5758 5758 5759 5760 5759 5759 5759 5759 5759 5760 5760 5761 5761 5762 5762 5763 5763 5764 5764 5765 5765
5735 5732 5732 5735 5736 5737 5738 5739 5739 5740 5741 5741 5742 5743 5744 5745 5745 5744 5741 5741 5743 5744 5744 5745 5745 5745 5746 5746 5745 5745 5745 5746 5747 5746 5747 5748 5749 5749 5750 5750 5751 5751 5750 5750 5751 5751 5752 5752 5753 5752 5753 5753 5754 5754 5754 5753 5753 5753 5753 5752 5753 5754 5755 5755 5755 5755 5755 5756 5757 5757 5757 5756 5756 5757 5757 5758 5758 5758 5759 5759 5760 5760 5761 5761 5762 5762
5731 5729 5732 5734 5734 5735 5736 5737 5737 5738 5739 5739 5740 5740 5741 5741 5740 5741 5739 5740 5742 5743 5742 5743 5743 5744 5745 5745 5744 5742 5741 5743 5744 5745 5745 5745 5746 5747 5747 5748 5748 5748 5748 5748 5748 5750 5750 5750 5750 5750 5750 5751 5752 5752 5751 5751 5751 5750 5750 5750 5750 5751 5752 5752 5753 5753 5753 5753 5754 5754 5754 5754 5754 5754 5755 5755 5755 5756 5756 5756 5757 5757 5758 5758 5759 5759
5727 5728 5731 5731 5732 5734 5734 5735 5735 5736 5737 5737 5737 5737 5738 5738 5737 5738 5738 5739 5741 5741 5740 5741 5741 5742 5743 5743 5742 5739 5739 5740 5741 5742 5743 5743 5743 5744 5744 5745 5745 5745 5745 5745 5745 5747 5748 5748 5749 5749 5749 5749 5749 5749 5749 5749 5748 5748 5748 5748 5747 5748 5749 5750 5750 5750 5750 5751 5751 5751 5751 5751 5751 5752 5752 5752 5753 5753 5753 5754 5754 5754 5755 5755 5756 5756
5725 5726 5728 5729 5730 5731 5732 5732 5732 5733 5735 5734 5733 5734 5735 5736 5735 5736 5737 5737 5739 5739 5737 5738 5739 5739 5740 5740 5738 5737 5737 5738 5738 5739 5741 5740 5741 5741 5741 5742 5742 5743 5743 5743 5743 5744 5745 5747 5747 5747 5747 5748 5748 5747 5746 5746 5746 5746 5745 5745 5744 5745 5746 5747 5748 5747 5747 5748 5748 5748 5749 5749 5749 5749 5750 5750 5750 5751 5751 5751 5751 5751 5752 5752 5753 5754
5723 5725 5726 5727 5728 5729 5730 5730 5729 5730 5731 5730 5730 5731 5733 5733 5733 5734 5735 5735 5736 5735 5734 5735 5737 5736 5738 5738 5736 5734 5735 5737 5737 5737 5736 5737 5737 5737 5738 5739 5740 5741 5741 5741 5742 5742 5743 5744 5745 5745 5745 5745 5746 5745 5745 5744 5744 5743 5743 5743 5742 5742 5744 5745 5745 5745 5745 5745 5745 5746 5746 5746 5747 5747 5747 5747 5748 5748 5748 5749 5749 5749 5749 5750 5750 5751
5721 5723 5723 5724 5725 5726 5727 5727 5727 5728 5728 5727 5728 5730 5730 5731 5731 5731 5732 5733 5732 5731 5731 5733 5733 5733 5735 5736 5734 5731 5732 5734 5734 5733 5731 5732 5733 5734 5735 5736 5737 5738 5738 5739 5739 5739 5740 5741 5742 5742 5742 5743 5743 5743 5743 5743 5742 5740 5740 5742 5741 5740 5741 5742 5742 5742 5742 5742 5742 5743 5743 5744 5744 5745 5745 5745 5745 5746 5746 5746 5747 5747 5747 5747 5748 5748
5719 5720 5720 5721 5722 5723 5723 5723 5724 5725 5726 5726 5726 5727 5728 5728 5728 5728 5729 5730 5729 5727 5729 5731 5730 5730 5731 5733 5732 5729 5728 5730 5730 5729 5728 5728 5730 5731 5732 5733 5733 5734 5735 5735 5736 5736 5737 5738 5738 5739 5739 5740 5740 5741 5741 5741 5740 5738 5738 5739 5739 5738 5739 5740 5740 5740 5740 5740 5740 5740 5741 5741 5742 5742 5743 5743 5743 5744 5744 5744 5745 5745 5745 5746 5746 5746
5716 5717 5717 5718 5719 5720 5719 5720 5721 5722 5723 5724 5724 5725 5725 5725 5725 5725 5725 5726 5725 5725 5727 5727 5727 5727 5728 5730 5730 5726 5724 5726 5726 5726 5725 5726 5727 5728 5729 5729 5729 5730 5731 5732 5733 5733 5734 5735 5735 5735 5736 5736 5737 5738 5738 5738 5738 5737 5736 5736 5736 5736 5737 5737 5738 5738 5738 5738 5738 5738 5738 5739 5740 5740 5740 5741 5741 5742 5742 5742 5742 5743 5743 5743 5743 5744
5714 5714 5714 5715 5716 5717 5717 5718 5718 5719 5720 5721 5722 5723 5723 5722 5722 5722 5723 5722 5722 5723 5724 5724 5724 5723 5725 5727 5725 5721 5721 5723 5724 5723 5722 5723 5723 5724 5725 5726 5726 5727 5727 5728 5729 5730 5731 5731 5732 5732 5732 5732 5733 5734 5734 5734 5735 5734 5733 5733 5733 5734 5735 5735 5735 5736 5736 5736 5736 5736 5737 5737 5737 5738 5738 5739 5739 5740 5740 5740 5740 5740 5741 5741 5741 5741
5714 5714 5713 5712 5713 5714 5715 5716 5716 5717 5717 5718 5719 5720 5720 5720 5720 5720 5720 5721 5721 5721 5720 5721 5721 5720 5722 5723 5720 5718 5720 5721 5720 5720 5719 5719 5720 5720 5721 5722 5723 5723 5723 5724 5724 5725 5726 5727 5727 5728 5728 5728 5728 5730 5730 5730 5731 5730 5730 5731 5730 5732 5733 5733 5733 5733 5734 5734 5735 5735 5735 5735 5735 5735 5736 5736 5737 5737 5738 5738 5738 5738 5738 5738 5739 5739
5713 5713 5712 5711 5711 5712 5713 5714 5714 5714 5714 5715 5717 5717 5717 5717 5717 5717 5718 5719 5719 5719 5717 5717 5718 5719 5719 5718 5717 5716 5717 5718 5718 5717 5717 5717 5717 5717 5717 5718 5719 5719 5719 5720 5720 5721 5721 5722 5723 5724 5724 5724 5724 5725 5725 5726 5726 5727 5728 5728 5728 5729 5730 5730 5731 5731 5732 5733 5733 5733 5733 5733 5733 5733 5733 5734 5734 5735 5735 5735 5735 5736 5736 5736 5736 5736
5711 5712 5710 5709 5711 5711 5711 5712 5712 5713 5712 5713 5714 5714 5715 5715 5715 5715 5715 5716 5716 5716 5715 5715 5716 5716 5715 5714 5714 5714 5714 5715 5715 5715 5715 5714 5714 5714 5714 5714 5716 5716 5716 5716 5717 5717 5718 5719 5720 5720 5720 5721 5721 5721 5722 5722 5723 5724 5725 5726 5725 5726 5727 5727 5728 5729 5729 5730 5731 5731 5731 5731 5731 5731 5731 5731 5732 5732 5732 5733 5733 5733 5734 5734 5734 5734
5709 5710 5708 5707 5709 5709 5710 5710 5710 5711 5711 5711 5712 5712 5712 5713 5712 5712 5712 5713 5713 5713 5713 5713 5714 5713 5712 5711 5711 5711 5711 5711 5712 5712 5712 5712 5712 5712 5711 5712 5713 5713 5713 5714 5714 5714 5715 5716 5717 5717 5718 5718 5718 5718 5719 5719 5720 5721 5723 5723 5723 5723 5724 5725 5725 5726 5726 5727 5728 5728 5728 5728 5729 5729 5729 5729 5730 5730 5730 5731 5731 5731 5731 5731 5732 5732
5706 5707 5706 5706 5707 5707 5708 5709 5709 5710 5710 5710 5710 5710 5710 5710 5710 5710 5710 5710 5710 5710 5711 5711 5711 5711 5710 5709 5707 5707 5708 5708 5708 5708 5708 5708 5709 5709 5709 5709 5710 5710 5711 5711 5711 5711 5712 5713 5714 5714 5715 5715 5716 5716 5717 5717 5718 5719 5720 5720 5720 5720 5721 5722 5722 5722 5724 5724 5725 5725 5726 5726 5726 5726 5727 5727 5727 5728 5728 5728 5728 5729 5729 5729 5730 5730
5704 5704 5704 5705 5705 5704 5705 5706 5707 5707 5708 5708 5708 5708 5708 5708 5708 5708 5708 5708 5708 5708 5708 5708 5708 5708 5708 5707 5704 5704 5705 5705 5704 5705 5705 5705 5705 5706 5706 5706 5707 5707 5707 5708 5709 5709 5709 5710 5710 5711 5711 5712 5713 5713 5714 5715 5716 5716 5717 5717 5718 5718 5718 5719 5719 5720 5721 5721 5722 5722 5722 5723 5723 5724 5724 5724 5725 5725 5725 5726 5726 5726 5727 5727 5728 5728
5702 5702 5702 5703 5702 5702 5703 5704 5704 5705 5705 5705 5705 5706 5706 5706 5706 5706 5705 5705 5706 5705 5705 5705 5705 5705 5705 5704 5702 5701 5702 5702 5702 5702 5701 5702 5702 5702 5703 5703 5704 5704 5704 5705 5706 5706 5706 5706 5707 5708 5708 5709 5709 5710 5710 5711 5712 5712 5713 5714 5714 5715 5715 5715 5716 5718 5718 5718 5719 5719 5719 5719 5720 5721 5721 5721 5722 5722 5722 5722 5723 5724 5725 5725 5725 5726
5699 5699 5700 5700 5699 5700 5701 5701 5701 5702 5702 5702 5702 5703 5703 5703 5703 5703 5703 5703 5703 5703 5702 5702 5702 5703 5703 5701 5699 5699 5699 5698 5699 5699 5698 5698 5699 5699 5699 5700 5701 5701 5702 5702 5703 5703 5703 5703 5704 5705 5705 5705 5705 5706 5706 5706 5707 5708 5709 5710 5710 5711 5711 5712 5713 5714 5714 5715 5715 5715 5716 5716 5717 5718 5718 5718 5719 5719 5719 5719 5720 5721 5722 5723 5724 5724
5695 5696 5697 5698 5697 5698 5698 5697 5697 5699 5700 5700 5700 5700 5700 5700 5700 5700 5700 5701 5700 5699 5700 5699 5699 5700 5699 5697 5697 5698 5696 5695 5695 5695 5694 5694 5695 5696 5696 5697 5698 5698 5699 5699 5699 5700 5700 5700 5701 5701 5701 5702 5702 5702 5703 5702 5703 5703 5704 5705 5706 5707 5707 5708 5709 5709 5710 5710 5711 5711 5712 5713 5713 5714 5714 5715 5716 5716 5715 5715 5716 5717 5719 5720 5721 5721
5692 5692 5693 5694 5694 5695 5695 5694 5694 5696 5697 5697 5697 5697 5697 5697 5697 5696 5696 5697 5697 5696 5696 5696 5696 5695 5694 5693 5694 5695 5693 5692 5691 5691 5691 5691 5692 5693 5694 5694 5695 5696 5696 5696 5697 5697 5697 5698 5698 5698 5698 5698 5698 5698 5699 5699 5700 5700 5700 5701 5701 5702 5703 5703 5704 5705 5705 5706 5706 5707 5709 5709 5709 5710 5710 5711 5712 5713 5712 5712 5712 5714 5715 5716 5717 5718
5688 5688 5688 5689 5689 5691 5692 5691 5691 5692 5693 5693 5693 5694 5694 5694 5694 5693 5692 5692 5691 5692 5693 5692 5692 5691 5689 5689 5690 5690 5690 5688 5688 5688 5687 5687 5688 5689 5690 5690 5691 5692 5692 5693 5693 5694 5694 5694 5694 5695 5695 5695 5695 5695 5695 5695 5696 5697 5698 5698 5698 5699 5699 5699 5700 5700 5700 5701 5702 5703 5704 5705 5706 5706 5707 5707 5707 5708 5709 5708 5708 5709 5710 5711 5712 5713
5684 5683 5683 5684 5685 5686 5688 5688 5688 5688 5687 5687 5688 5689 5689 5689 5690 5689 5689 5688 5687 5689 5690 5688 5688 5688 5686 5684 5685 5686 5686 5685 5685 5684 5683 5684 5684 5684 5685 5686 5686 5687 5688 5689 5689 5690 5690 5691 5691 5691 5691 5691 5692 5692 5692 5692 5692 5693 5694 5695 5695 5696 5695 5696 5696 5696 5696 5697 5698 5699 5700 5701 5702 5702 5703 5704 5704 5704 5704 5704 5704 5705 5706 5706 5707 5708
5679 5679 5678 5680 5680 5682 5684 5684 5684 5683 5681 5681 5682 5684 5684 5684 5685 5685 5685 5684 5684 5686 5686 5684 5685 5685 5682 5680 5680 5681 5681 5681 5680 5680 5680 5679 5679 5679 5680 5681 5681 5682 5683 5683 5684 5685 5685 5686 5686 5687 5687 5687 5688 5688 5688 5689 5689 5689 5690 5690 5691 5691 5691 5692 5693 5693 5693 5694 5694 5695 5696 5697 5698 5699 5700 5700 5701 5701 5700 5700 5700 5701 5701 5702 5702 5703
5673 5674 5674 5675 5675 5677 5678 5679 5678 5677 5676 5677 5677 5679 5679 5679 5680 5680 5679 5679 5680 5681 5680 5680 5681 5680 5678 5678 5677 5676 5676 5676 5675 5675 5675 5674 5674 5675 5675 5675 5675 5675 5676 5676 5677 5678 5679 5680 5681 5681 5682 5682 5683 5684 5684 5685 5685 5685 5685 5685 5685 5686 5687 5687 5688 5688 5689 5690 5691 5691 5692 5693 5694 5695 5695 5696 5697 5697 5697 5696 5697 5696 5696 5698 5698 5698
5667 5668 5669 5669 5670 5671 5671 5672 5673 5672 5671 5671 5672 5673 5674 5673 5674 5674 5674 5675 5675 5674 5674 5676 5676 5675 5675 5675 5673 5671 5671 5671 5670 5670 5670 5669 5669 5670 5670 5670 5669 5669 5668 5669 5670 5671 5673 5674 5675 5675 5676 5677 5677 5678 5679 5679 5680 5681 5681 5681 5681 5681 5681 5682 5683 5683 5683 5685 5685 5686 5687 5688 5689 5690 5690 5691 5691 5692 5692 5692 5693 5692 5692 5693 5694 5694
5662 5662 5663 5663 5663 5664 5665 5665 5666 5665 5665 5665 5665 5666 5667 5667 5667 5668 5668 5669 5670 5667 5668 5670 5670 5669 5670 5669 5669 5668 5666 5666 5665 5665 5665 5664 5664 5664 5665 5664 5664 5663 5662 5662 5662 5664 5666 5667 5669 5669 5670 5671 5671 5672 5672 5673 5674 5675 5675 5676 5677 5677 5677 5677 5677 5678 5678 5679 5680 5680 5682 5683 5684 5684 5685 5686 5686 5686 5687 5687 5688 5688 5688 5689 5689 5689
5656 5656 5657 5657 5657 5658 5659 5659 5659 5659 5659 5658 5658 5659 5660 5660 5660 5660 5660 5662 5663 5662 5662 5662 5661 5663 5664 5663 5664 5664 5662 5660 5660 5660 5660 5659 5658 5658 5658 5659 5659 5658 5657 5656 5656 5657 5659 5661 5662 5663 5664 5665 5665 5666 5666 5667 5667 5668 5669 5670 5671 5671 5672 5672 5673 5673 5673 5674 5674 5675 5676 5677 5678 5679 5679 5680 5680 5681 5682 5682 5683 5683 5684 5684 5684 5684
5650 5651 5651 5651 5650 5650 5652 5653 5652 5653 5652 5651 5652 5652 5653 5653 5653 5653 5653 5654 5654 5655 5655 5655 5654 5656 5657 5657 5657 5657 5656 5656 5656 5655 5655 5654 5653 5653 5653 5653 5653 5652 5652 5652 5651 5651 5653 5654 5655 5656 5657 5658 5658 5659 5660 5660 5661 5662 5663 5663 5664 5665 5666 5667 5667 5668 5668 5668 5669 5670 5671 5672 5673 5673 5674 5674 5674 5675 5676 5677 5677 5678 5678 5679 5680 5679
5644 5644 5645 5644 5643 5644 5646 5646 5646 5646 5644 5643 5645 5646 5646 5646 5646 5647 5647 5647 5647 5647 5647 5647 5647 5649 5650 5649 5650 5650 5649 5650 5650 5650 5650 5648 5648 5649 5648 5647 5647 5646 5646 5646 5646 5646 5646 5647 5648 5650 5651 5651 5652 5653 5653 5654 5655 5655 5656 5657 5658 5659 5660 5660 5661 5662 5662 5663 5664 5664 5665 5666 5667 5668 5668 5668 5668 5669 5669 5670 5670 5670 5671 5673 5674 5675
5638 5638 5639 5638 5636 5638 5639 5639 5638 5638 5635 5636 5638 5640 5640 5639 5640 5640 5640 5641 5641 5640 5639 5639 5641 5643 5642 5641 5642 5643 5643 5643 5643 5643 5643 5641 5641 5642 5642 5641 5640 5640 5639 5639 5640 5641 5640 5640 5642 5643 5644 5644 5645 5646 5647 5647 5648 5649 5650 5650 5651 5652 5653 5654 5655 5655 5656 5657 5657 5658 5659 5660 5661 5662 5662 5663 5663 5663 5664 5663 5663 5663 5664 5665 5666 5669
5632 5632 5632 5632 5631 5631 5632 5632 5631 5629 5628 5630 5633 5633 5632 5633 5633 5632 5632 5633 5634 5634 5633 5633 5634 5635 5635 5634 5634 5635 5636 5636 5635 5634 5635 5634 5633 5635 5636 5635 5634 5633 5632 5632 5633 5633 5633 5634 5635 5637 5638 5638 5638 5639 5639 5640 5641 5642 5642 5643 5644 5645 5646 5647 5648 5649 5649 5650 5651 5652 5652 5653 5654 5655 5656 5657 5657 5657 5657 5657 5657 5657 5658 5658 5659 5661
5626 5626 5626 5627 5626 5625 5626 5625 5622 5622 5623 5625 5625 5624 5624 5626 5625 5625 5626 5626 5626 5627 5628 5628 5627 5627 5627 5627 5627 5627 5628 5629 5628 5627 5627 5627 5626 5628 5628 5628 5628 5626 5624 5625 5626 5626 5626 5628 5629 5630 5631 5631 5631 5632 5632 5632 5634 5635 5635 5636 5637 5638 5639 5640 5641 5641 5642 5643 5644 5645 5645 5646 5647 5648 5649 5650 5650 5651 5651 5651 5651 5651 5652 5652 5652 5654
5620 5620 5620 5620 5620 5619 5619 5617 5615 5617 5618 5618 5617 5616 5617 5619 5619 5617 5618 5619 5618 5619 5620 5620 5620 5620 5619 5619 5619 5619 5620 5621 5621 5619 5618 5619 5620 5621 5621 5620 5619 5619 5618 5618 5619 5619 5620 5621 5621 5621 5622 5623 5624 5624 5625 5626 5627 5628 5628 5629 5630 5631 5632 5633 5634 5634 5635 5636 5637 5638 5639 5639 5640 5641 5642 5642 5643 5643 5643 5644 5645 5645 5645 5646 5646 5647
5615 5615 5614 5613 5614 5613 5612 5611 5610 5611 5611 5611 5610 5609 5610 5612 5611 5609 5609 5610 5610 5611 5612 5612 5612 5613 5613 5612 5612 5612 5613 5615 5615 5611 5609 5611 5614 5613 5612 5610 5610 5612 5612 5611 5611 5611 5612 5613 5613 5614 5615 5615 5616 5617 5617 5619 5620 5621 5621 5622 5623 5624 5625 5625 5626 5627 5628 5629 5630 5631 5632 5633 5633 5634 5635 5635 5635 5636 5636 5636 5637 5638 5639 5639 5640 5640
5608 5608 5608 5607 5607 5606 5606 5605 5605 5605 5605 5604 5604 5603 5603 5605 5604 5602 5602 5602 5602 5603 5604 5604 5604 5605 5604 5604 5606 5606 5606 5608 5607 5600 5600 5605 5605 5603 5603 5603 5602 5604 5604 5603 5603 5604 5605 5605 5605 5606 5607 5608 5608 5609 5609 5611 5612 5613 5614 5614 5616 5617 5617 5618 5619 5619 5620 5622 5623 5625 5625 5626 5627 5627 5628 5628 5628 5628 5629 5629 5630 5630 5631 5632 5632 5633
5603 5602 5602 5602 5601 5600 5600 5600 5599 5599 5598 5598 5599 5597 5596 5597 5597 5596 5595 5594 5595 5596 5597 5596 5596 5597 5596 5596 5598 5599 5600 5601 5597 5591 5594 5597 5595 5594 5597 5596 5594 5595 5596 5595 5596 5596 5597 5598 5599 5599 5599 5600 5601 5601 5602 5603 5604 5605 5606 5607 5608 5609 5610 5611 5612 5612 5613 5614 5616 5617 5618 5619 5619 5620 5620 5621 5621 5621 5622 5622 5622 5623 5624 5625 5625 5625
5597 5596 5596 5596 5595 5595 5594 5593 5594 5593 5591 5591 5593 5591 5590 5591 5591 5590 5588 5587 5587 5589 5589 5588 5589 5589 5589 5588 5589 5591 5593 5592 5586 5583 5586 5588 5586 5588 5590 5589 5588 5589 5589 5588 5589 5589 5590 5592 5592 5592 5592 5593 5593 5594 5594 5595 5595 5597 5598 5599 5600 5601 5602 5603 5604 5605 5605 5606 5608 5609 5610 5610 5611 5612 5613 5614 5614 5615 5615 5615 5615 5616 5617 5617 5618 5618
5589 5590 5590 5590 5590 5589 5588 5587 5588 5586 5583 5584 5586 5584 5583 5584 5585 5583 5582 5581 5580 5580 5581 5581 5581 5581 5581 5581 5581 5583 5585 5582 5577 5575 5579 5581 5580 5581 5582 5582 5582 5582 5582 5581 5581 5582 5584 5585 5584 5585 5586 5586 5586 5586 5587 5587 5588 5589 5590 5590 5592 5593 5594 5595 5596 5597 5598 5599 5600 5601 5602 5602 5603 5604 5605 5606 5607 5608 5608 5608 5608 5609 5609 5610 5611 5611
5582 5581 5582 5583 5583 5583 5582 5580 5580 5579 5577 5577 5578 5578 5577 5578 5577 5575 5575 5574 5572 5572 5573 5574 5574 5573 5573 5573 5573 5574 5575 5574 5571 5570 5572 5573 5573 5573 5574 5575 5575 5574 5574 5575 5575 5575 5577 5577 5577 5578 5579 5579 5579 5579 5579 5579 5580 5581 5582 5583 5584 5585 5586 5588 5589 5589 5590 5591 5592 5593 5594 5595 5596 5596 5598 5599 5600 5600 5601 5601 5602 5602 5603 5604 5604 5605
5577 5576 5577 5576 5575 5574 5574 5573 5572 5572 5571 5571 5571 5570 5570 5570 5568 5567 5567 5566 5565 5565 5565 5566 5565 5565 5564 5564 5565 5566 5567 5567 5565 5564 5564 5565 5566 5566 5566 5567 5567 5567 5567 5567 5568 5568 5569 5570 5571 5571 5571 5571 5572 5571 5571 5572 5573 5573 5574 5575 5576 5577 5579 5580 5581 5582 5583 5584 5585 5586 5587 5588 5589 5589 5590 5592 5593 5593 5593 5594 5595 5595 5596 5597 5598 5599
5571 5572 5572 5570 5568 5567 5567 5567 5565 5565 5566 5565 5564 5563 5562 5560 5559 5559 5559 5559 5558 5558 5558 5557 5557 5556 5556 5556 5557 5558 5559 5559 5559 5557 5557 5558 5559 5559 5558 5559 5559 5560 5560 5560 5560 5561 5561 5562 5564 5564 5564 5564 5564 5564 5564 5565 5565 5566 5567 5568 5569 5570 5571 5572 5573 5575 5576 5577 5578 5579 5580 5581 5582 5582 5584 5585 5585 5586 5586 5586 5588 5589 5590 5590 5591 5592
5565 5565 5564 5564 5563 5562 5562 5562 5560 5559 5559 5558 5557 5556 5554 5552 5551 5552 5552 5552 5551 5551 5550 5549 5548 5549 5548 5548 5549 5550 5550 5551 5551 5550 5550 5550 5551 5552 5552 5551 5551 5551 5552 5552 5553 5553 5553 5555 5555 5555 5556 5557 5556 5557 5557 5557 5558 5559 5560 5561 5562 5563 5564 5565 5566 5567 5568 5569 5571 5572 5573 5574 5575 5575 5576 5577 5578 5579 5579 5579 5581 5582 5583 5583 5584 5585
5559 5559 5558 5558 5558 5557 5557 5556 5554 5553 5553 5551 5550 5549 5547 5546 5546 5545 5545 5544 5543 5542 5542 5542 5541 5541 5540 5540 5541 5542 5542 5542 5542 5542 5542 5542 5543 5544 5544 5544 5544 5544 5544 5545 5545 5545 5545 5547 5547 5547 5548 5549 5549 5549 5549 5550 5551 5551 5552 5553 5554 5555 5556 5557 5558 5560 5561 5562 5564 5565 5566 5567 5568 5568 5569 5569 5571 5571 5571 5572 5574 5576 5576 5576 5577 5578
5553 5553 5553 5552 5552 5551 5551 5550 5548 5547 5546 5545 5544 5542 5541 5541 5540 5539 5537 5536 5536 5535 5535 5535 5534 5533 5532 5532 5532 5533 5534 5534 5533 5534 5534 5534 5534 5535 5535 5536 5536 5537 5537 5537 5537 5537 5538 5539 5539 5539 5540 5540 5541 5541 5541 5542 5543 5544 5545 5546 5547 5548 5549 5550 5551 5553 5554 5556 5557 5559 5559 5560 5561 5561 5561 5562 5563 5564 5564 5565 5568 5569 5569 5569 5570 5571
5547 5547 5547 5547 5546 5545 5545 5544 5542 5541 5540 5538 5537 5536 5535 5534 5533 5532 5531 5529 5529 5529 5528 5527 5527 5526 5525 5524 5524 5524 5525 5525 5524 5525 5525 5525 5525 5526 5526 5526 5527 5528 5528 5528 5528 5529 5530 5530 5531 5531 5531 5532 5532 5532 5532 5534 5535 5536 5538 5539 5540 5541 5542 5543 5544 5545 5547 5549 5550 5551 5552 5552 5553 5554 5554 5555 5556 5557 5558 5559 5561 5562 5562 5562 5563 5565
5543 5542 5542 5541 5540 5539 5539 5537 5536 5535 5534 5532 5531 5529 5528 5527 5526 5526 5524 5523 5522 5522 5521 5520 5519 5518 5517 5516 5516 5515 5516 5516 5516 5515 5516 5516 5516 5516 5516 5517 5517 5517 5518 5518 5519 5520 5520 5521 5522 5522 5522 5523 5524 5523 5524 5526 5528 5529 5530 5531 5533 5534 5534 5535 5537 5538 5540 5541 5543 5544 5544 5545 5545 5546 5547 5547 5548 5550 5552 5553 5553 5555 5555 5555 5556 5558
5538 5537 5536 5534 5533 5533 5532 5530 5528 5528 5527 5526 5524 5521 5520 5519 5519 5519 5517 5516 5515 5514 5513 5512 5511 5510 5509 5508 5507 5507 5507 5507 5507 5506 5506 5507 5507 5507 5507 5507 5507 5507 5508 5508 5509 5510 5511 5511 5512 5513 5514 5515 5515 5515 5516 5518 5520 5521 5522 5523 5525 5526 5526 5527 5529 5531 5532 5534 5535 5536 5537 5537 5538 5539 5539 5539 5541 5544 5546 5545 5545 5547 5548 5548 5550 5552
5532 5531 5530 5528 5527 5527 5525 5523 5521 5520 5520 5518 5516 5514 5513 5512 5512 5511 5510 5509 5508 5507 5505 5504 5504 5503 5501 5500 5499 5498 5498 5498 5498 5498 5497 5497 5497 5497 5498 5497 5497 5497 5498 5499 5500 5501 5501 5502 5503 5504 5505 5505 5506 5506 5507 5509 5511 5512 5513 5514 5515 5517 5518 5520 5521 5523 5525 5526 5527 5528 5529 5529 5531 5532 5532 5532 5535 5538 5538 5538 5538 5540 5541 5542 5544 5545